This is the latest recevied weather packets stored in our database for station/object W3TMB. If no packets are shown the sender has not sent any weather packets the latest 10 day(s).
| Time | Temp. | Humidity | Pressure | Rain* | Wind** | Luminosity | Snow |
|---|---|---|---|---|---|---|---|
| 1777937284 | 23.33° C | 41% | 1003.3 hPa | 0 mm | - | 18 W/m² | - |
| 1777936981 | 23.33° C | 41% | 1002.8 hPa | 0 mm | - | 23 W/m² | - |
| 1777936678 | 23.89° C | 40% | 1003.1 hPa | 0 mm | - | 30 W/m² | - |
| 1777936374 | 23.89° C | 39% | 1003.1 hPa | 0 mm | - | 35 W/m² | - |
| 1777936070 | 24.44° C | 38% | 1003 hPa | 0 mm | - | 41 W/m² | - |
| 1777935769 | 24.44° C | 38% | 1003.1 hPa | 0 mm | - | 58 W/m² | - |
| 1777935467 | 25° C | 36% | 1002.9 hPa | 0 mm | - | 56 W/m² | - |
| 1777935163 | 25.56° C | 36% | 1002.9 hPa | 0 mm | - | 88 W/m² | - |
| 1777934860 | 26.11° C | 35% | 1003 hPa | 0 mm | - | 100 W/m² | - |
| 1777934557 | 25.56° C | 36% | 1003.1 hPa | 0 mm | - | 122 W/m² | - |
| 1777934254 | 25.56° C | 36% | 1002.8 hPa | 0 mm | - | 135 W/m² | - |
| 1777933949 | 25.56° C | 36% | 1003 hPa | 0 mm | - | 140 W/m² | - |
| 1777933647 | 26.11° C | 36% | 1003 hPa | 0 mm | - | 162 W/m² | - |
| 1777933343 | 25.56° C | 35% | 1003.1 hPa | 0 mm | - | 182 W/m² | - |
| 1777933041 | 25.56° C | 33% | 1002.7 hPa | 0 mm | - | 204 W/m² | - |
| 1777932738 | 26.11° C | 35% | 1003.2 hPa | 0 mm | - | 212 W/m² | - |
| 1777932434 | 26.11° C | 34% | 1003 hPa | 0 mm | - | 240 W/m² | - |
| 1777932132 | 26.11° C | 33% | 1002.9 hPa | 0 mm | - | 279 W/m² | - |
| 1777931828 | 26.11° C | 34% | 1002.9 hPa | 0 mm | - | 280 W/m² | - |
| 1777931526 | 25.56° C | 32% | 1002.8 hPa | 0 mm | - | 260 W/m² | - |
| 1777931221 | 25.56° C | 32% | 1003.1 hPa | 0 mm | - | 66 W/m² | - |
| 1777930918 | 26.67° C | 32% | 1003 hPa | 0 mm | - | 287 W/m² | - |
| 1777930614 | 26.11° C | 31% | 1002.8 hPa | 0 mm | - | 308 W/m² | - |
| 1777930311 | 26.11° C | 31% | 1003 hPa | 0 mm | - | 349 W/m² | - |
| 1777930008 | 26.11° C | 32% | 1003 hPa | 0 mm | - | 348 W/m² | - |
* Rain latest hour (hover to see other rain measurements)
** Current wind speed in m/s (hover to see current wind gust speed)